Location: Sungai Kamana Besar
(2.6333°N, 113.4333°E)
Time: 04:29:44
(UTC+00:00)

Cosmos 1825 Rocket - Pass Details

Date: 29 May 2022
Orbit: 602 x 631 km, 82.5° (Epoch: 24 June)

Event Time Altitude Azimuth Distance (km) Brightness Sun altitude
Exits shadow 20:53:52 33° 294° (WNW) 1,058 4.4 -19.7°
Drops below altitude 10° 20:57:12 10° 340° (NNW) 1,989 6.2 -19.0°
Sets 20:59:34 0° 349° (N) 2,888 7.2 -18.4°
